Theta_e
312 313 311 311 311 312 311 311 311 312 313 312 313 312 312 312 313 313 313 312 312 312 314 312 311 311 312 312 311 311 309 309 308 309 309 309 309 313 320 321 322 322 323 324 325 326 327 327 327 326 327 327 328 328 328 327 326 327 327 326 326 326 327 327 328 328 329 330 330 330 331 332 333 332 333 334 340 339 339 339 338 338 337 338 337
312 313 311 310 310 311 312 311 311 311 312 312 312 312 311 312 312 313 313 312 312 312 313 310 311 311 312 311 311 311 310 308 308 308 309 309 309 311 319 320 321 322 322 323 324 326 326 326 325 327 326 325 326 326 329 326 327 327 327 325 325 326 327 327 328 328 328 330 329 329 329 331 332 332 333 334 339 340 340 339 339 338 338 338 337
312 313 312 310 310 311 311 311 310 311 312 312 312 313 312 311 311 312 312 311 311 311 311 310 309 310 312 311 311 311 310 309 309 310 310 309 309 309 312 318 320 321 322 322 322 323 324 327 327 326 326 328 325 327 326 328 326 326 326 326 325 327 328 328 327 328 328 329 330 330 329 329 330 330 332 333 338 340 340 339 339 338 337 337 334
313 314 314 310 310 310 310 311 310 311 313 312 311 312 311 311 312 312 312 312 310 309 310 309 309 309 310 311 311 311 310 309 309 310 310 310 309 309 309 313 318 321 322 322 322 323 325 326 324 325 327 328 328 327 325 324 325 324 327 327 326 327 327 328 328 327 327 328 330 330 330 328 330 330 331 332 337 338 339 339 338 337 337 337 336
313 314 316 310 310 310 311 312 311 311 312 312 311 311 311 310 311 312 312 311 309 309 310 309 308 309 310 311 311 310 311 309 309 310 310 310 309 309 309 311 312 318 320 321 321 322 323 324 325 326 324 325 326 328 329 327 326 326 325 326 325 326 327 328 328 326 326 327 330 330 329 328 329 330 330 332 335 338 338 338 338 336 335 334 334
313 313 313 311 311 310 310 311 311 312 311 311 310 310 310 310 310 309 313 310 306 308 308 308 308 308 310 311 310 310 310 309 308 309 310 310 309 309 309 310 311 312 314 319 320 320 322 322 323 322 324 323 324 323 326 327 327 327 326 325 325 326 326 328 328 327 327 327 329 329 329 329 330 331 332 334 335 337 337 338 338 337 334 335 336
313 313 313 312 311 310 311 311 312 313 310 310 310 310 310 310 310 309 309 307 307 310 308 307 307 308 309 311 310 312 309 309 309 309 310 309 309 309 309 310 311 313 314 313 317 319 321 322 323 324 324 325 326 324 324 326 324 325 325 325 326 326 326 326 328 327 326 327 327 329 330 330 331 332 332 332 333 334 337 338 337 337 334 334 334
313 313 313 313 311 310 310 312 312 312 311 309 311 309 310 310 310 310 307 307 308 308 309 308 308 308 308 310 309 313 308 308 309 309 310 309 308 309 310 310 312 313 316 313 313 314 320 320 321 322 322 323 325 325 324 324 325 324 324 325 326 326 326 326 326 327 327 326 327 328 329 330 332 332 331 331 332 332 335 337 337 336 335 334 333
313 312 313 313 312 312 311 311 312 311 310 308 308 311 309 310 310 312 308 306 307 308 309 308 308 308 308 308 309 311 308 309 309 311 311 308 308 309 310 310 313 316 312 313 312 312 316 320 320 321 321 322 323 324 325 323 324 326 326 324 324 325 325 325 326 327 326 325 325 328 330 331 331 332 331 331 331 331 333 336 337 336 336 335 333
313 313 312 315 313 312 311 311 312 310 309 309 308 310 310 309 309 310 310 308 307 307 307 308 309 308 308 308 308 308 308 308 311 314 307 308 308 309 310 310 312 311 312 312 312 313 312 315 319 319 319 321 322 323 324 322 323 324 326 325 325 324 325 324 326 326 326 326 325 326 328 331 332 332 331 331 331 332 333 334 337 336 335 335 334
313 313 313 312 312 312 311 310 311 309 309 309 309 311 311 310 309 310 310 309 308 307 308 308 308 308 308 308 307 307 308 309 310 307 308 308 310 313 310 310 311 311 312 312 313 312 312 312 312 312 313 320 321 322 324 324 324 324 325 325 325 325 326 325 325 326 324 324 325 326 328 330 330 331 331 331 331 331 331 335 336 336 334 334 334
313 311 312 312 310 311 310 311 311 309 309 308 308 308 309 309 309 310 309 309 310 309 309 308 307 306 308 308 307 307 307 311 309 308 310 309 309 311 309 311 310 311 312 313 313 312 312 312 314 312 313 315 320 321 322 324 324 324 323 323 324 325 325 325 325 326 325 326 326 327 328 329 330 331 330 331 332 331 331 333 336 335 335 334 332
318 312 312 313 310 310 310 310 310 312 310 308 308 309 310 308 309 309 310 307 307 309 309 308 306 306 307 306 306 308 311 311 307 308 309 309 309 309 310 310 310 310 312 313 312 312 311 312 312 312 312 312 314 319 320 322 323 323 324 324 325 325 325 324 325 327 328 327 328 327 328 328 330 330 329 330 331 331 333 335 334 335 335 334 332
316 313 312 311 310 310 310 309 310 311 312 310 310 314 308 309 309 308 308 307 306 308 308 307 305 303 302 303 304 306 309 308 306 308 308 309 309 309 310 309 310 310 312 312 312 311 311 311 311 311 312 312 312 313 314 317 321 325 325 325 325 324 324 326 327 326 327 328 328 328 328 328 330 331 331 331 331 333 334 334 334 335 335 334 332
312 315 313 312 310 309 311 310 310 313 309 309 308 309 307 307 307 306 307 308 309 310 308 307 303 304 304 302 300 300 305 307 309 309 309 309 308 309 310 309 310 310 311 311 311 311 311 311 311 311 311 311 312 313 313 317 322 325 325 323 322 324 325 326 326 326 327 327 327 328 328 328 330 331 332 332 332 332 334 335 335 334 333 332 332
312 313 312 312 310 309 309 309 310 311 309 308 309 309 308 308 308 309 306 306 306 306 310 307 306 304 301 300 299 299 299 302 305 307 308 308 307 309 309 309 309 310 311 310 310 310 310 311 310 311 311 311 311 312 313 314 320 324 327 324 324 324 326 326 327 328 327 327 328 328 328 328 330 331 331 331 332 332 333 331 333 333 332 331 332
312 312 315 312 311 310 310 310 309 310 310 308 308 308 308 307 308 308 306 303 305 303 306 308 307 307 304 301 299 299 299 302 304 305 308 307 306 308 310 309 308 309 309 310 310 310 310 310 310 310 311 310 310 311 312 313 315 319 322 326 325 324 326 326 326 326 327 326 327 328 329 329 330 330 330 331 330 332 330 331 331 332 333 333 333
311 312 313 315 311 311 310 310 310 311 313 308 308 309 309 308 310 306 307 306 304 304 304 308 309 309 306 305 305 299 300 303 303 300 308 308 307 308 308 309 308 308 308 309 310 309 311 309 310 310 310 310 310 310 311 312 315 315 320 322 325 326 326 327 325 326 326 327 327 329 328 328 328 330 331 330 330 328 325 327 330 328 328 329 328
311 311 312 313 312 312 311 310 311 310 314 309 308 308 309 308 312 308 307 310 305 304 304 304 306 305 307 306 306 308 305 302 301 304 301 305 306 307 307 309 308 307 308 308 310 309 309 310 310 310 310 310 310 310 311 312 315 318 325 325 324 327 327 326 326 327 328 328 328 326 325 324 325 327 328 327 327 326 324 326 324 325 325 325 329
311 311 312 314 314 312 311 311 311 312 315 309 308 309 310 311 311 309 309 309 304 304 304 304 303 304 307 306 306 307 304 305 305 303 302 301 303 307 308 308 308 306 307 307 309 309 309 309 309 309 309 309 309 310 310 312 312 313 320 324 324 324 326 327 327 327 327 326 326 328 325 327 327 327 326 328 327 326 326 326 326 327 328 330 329
311 311 311 312 315 313 311 311 311 311 314 312 310 310 308 308 309 309 307 308 308 307 304 304 304 302 302 303 304 304 305 303 304 304 304 302 302 303 303 306 306 306 307 307 309 309 309 309 310 310 310 309 309 310 310 311 312 313 319 322 324 326 326 326 327 326 326 327 327 328 327 326 327 327 327 328 329 329 330 329 328 327 327 328 328
311 310 311 312 312 313 313 312 311 313 315 310 310 310 310 309 308 307 308 306 307 306 307 305 305 304 302 302 302 302 303 303 302 304 304 306 302 302 302 302 302 305 306 307 307 308 309 309 309 309 309 309 309 309 310 311 312 312 315 321 323 324 324 325 326 326 325 323 325 327 327 327 327 328 328 329 329 329 330 328 327 328 327 328 329
309 310 310 311 311 312 311 312 314 314 313 311 310 309 309 309 309 309 308 307 306 306 307 306 306 305 304 302 302 302 301 301 302 305 305 304 304 303 303 303 302 301 305 307 307 307 308 309 308 309 309 309 309 309 309 310 313 314 314 317 320 323 325 327 327 327 327 327 326 326 328 329 330 329 328 329 329 329 329 329 328 328 327 328 329
308 308 309 310 311 310 310 310 312 311 312 311 311 310 310 309 309 308 308 307 307 308 305 305 304 304 304 303 303 303 303 303 303 305 305 305 304 304 303 303 302 301 304 306 305 307 307 308 308 308 309 309 309 310 310 310 312 315 311 314 316 319 324 325 325 325 328 329 327 325 325 325 329 327 328 328 328 329 328 328 327 327 327 327 328
306 306 308 309 311 310 310 310 310 311 312 310 311 310 310 309 308 307 307 307 306 305 305 305 304 303 302 303 303 303 302 303 304 304 305 305 305 304 304 303 299 300 300 303 303 304 307 308 308 308 309 309 309 309 309 309 311 313 312 310 314 315 321 324 324 325 327 329 328 326 326 326 327 328 328 327 327 327 327 327 326 326 326 326 326
306 306 308 310 309 311 311 310 310 310 311 310 310 310 310 310 308 307 306 307 307 307 306 305 305 304 303 302 303 302 302 304 303 304 304 304 304 305 304 305 300 300 299 301 304 304 306 308 309 308 308 309 309 309 309 309 310 313 312 309 309 312 316 322 323 324 324 325 326 325 325 325 325 326 325 325 326 326 326 325 325 325 325 325 325
306 308 311 309 309 310 311 311 311 311 310 308 309 308 309 308 308 307 307 308 309 309 306 304 305 303 302 301 304 303 302 303 303 304 304 304 305 306 305 302 303 302 301 300 302 305 305 307 309 308 308 309 309 309 310 309 311 313 311 307 307 310 311 314 321 324 324 324 323 323 323 323 324 324 325 324 324 323 323 323 324 324 324 324 324
306 309 309 309 309 310 311 310 312 311 310 309 307 307 307 307 306 306 306 310 308 307 306 304 304 303 302 302 302 302 303 303 304 304 304 305 304 305 306 305 302 300 301 299 301 304 307 305 308 309 309 308 308 309 311 310 309 311 310 307 307 307 309 310 313 320 324 324 324 324 323 323 323 323 322 322 323 323 323 323 323 324 324 324 324
309 309 309 309 307 309 309 308 308 307 307 307 306 306 307 306 307 305 306 306 308 307 305 304 303 303 302 302 301 302 303 304 303 304 305 305 304 304 304 304 304 301 300 298 299 301 306 307 305 308 309 309 308 308 308 308 311 309 307 307 307 307 308 308 309 312 316 322 325 325 324 323 323 323 322 322 322 322 322 323 323 323 323 324 323
309 310 308 307 306 309 306 305 304 304 304 305 305 306 306 305 306 306 305 305 306 307 307 304 304 303 304 303 302 303 303 303 303 303 304 304 304 304 304 305 305 304 302 298 298 303 304 307 308 307 309 309 309 309 308 307 311 309 307 307 307 307 308 307 307 307 308 311 315 319 323 323 321 322 322 322 321 321 322 322 322 322 322 322 321
308 306 304 306 305 304 304 303 302 302 303 303 304 304 304 304 305 305 305 304 305 305 305 305 304 303 302 302 302 303 303 302 303 303 304 304 304 304 305 305 306 305 306 302 296 303 306 305 308 312 310 309 310 309 308 308 310 308 307 306 307 309 308 307 307 306 305 306 308 309 314 319 321 322 323 323 322 323 321 321 321 321 321 319 317
305 305 304 304 304 302 302 301 301 301 301 301 302 302 303 303 303 304 304 304 304 303 303 304 305 303 302 301 302 302 303 302 302 302 303 304 304 304 304 305 306 306 306 303 300 301 306 307 308 310 313 309 310 308 308 308 309 309 306 306 307 308 306 306 307 306 305 304 304 304 306 311 315 316 316 316 317 318 318 319 318 317 315 316 317
304 304 303 304 303 302 301 301 299 298 298 299 300 300 301 301 303 304 304 304 303 302 303 303 303 302 302 301 302 302 303 301 301 302 303 303 304 304 305 305 305 306 305 303 301 302 305 308 308 310 312 312 308 309 308 307 307 307 307 307 307 306 306 306 305 306 305 304 304 303 303 304 306 309 310 309 308 308 310 310 311 312 313 314 314
305 304 303 303 302 301 299 298 297 297 297 297 297 298 299 299 300 303 303 303 303 303 302 301 301 302 301 301 301 301 302 301 301 301 302 302 303 303 303 304 305 305 306 304 303 302 302 306 307 310 310 312 309 311 308 307 306 307 305 306 306 306 306 306 305 305 305 305 304 303 303 303 303 304 306 305 302 302 303 304 306 308 309 310 311
304 306 302 302 301 299 298 297 296 295 295 295 296 296 297 298 298 300 301 302 302 303 303 302 301 300 300 300 300 301 302 300 300 300 302 302 303 303 303 305 305 306 307 307 305 304 304 304 307 308 309 310 310 310 310 310 309 307 305 305 306 306 307 306 306 305 306 305 304 304 303 303 302 302 303 302 301 302 302 302 302 303 304 304 305
304 303 302 302 300 298 297 295 294 293 293 294 294 294 295 296 297 298 300 301 302 302 302 302 301 300 299 299 299 299 300 298 299 299 301 302 302 303 303 304 305 306 307 307 307 305 304 303 304 305 307 309 311 313 311 310 309 307 307 306 307 306 307 307 306 305 306 306 305 304 304 303 303 302 302 302 302 301 301 301 302 302 302 302 302
304 303 304 301 299 298 297 295 293 293 292 292 293 293 294 295 296 297 299 301 301 301 302 303 306 300 300 298 299 299 299 298 298 298 299 300 302 303 304 305 306 306 306 305 304 304 302 301 302 305 305 305 309 312 313 310 309 308 308 306 306 306 306 308 308 308 307 307 306 305 304 304 303 302 302 302 302 301 301 301 301 301 301 301 301
303 303 302 300 300 297 296 294 293 292 291 291 291 292 292 294 295 297 299 300 301 300 301 302 302 301 299 299 299 298 298 298 298 298 299 299 301 302 303 304 305 305 304 304 304 302 301 300 300 300 302 303 304 306 310 312 310 308 307 308 308 308 307 307 307 307 307 306 306 305 305 304 304 303 303 302 302 302 302 301 301 301 301 301 300
302 302 301 300 299 297 295 294 293 292 292 291 291 291 292 292 294 295 298 299 299 299 299 300 300 300 300 300 299 298 298 299 299 298 298 299 301 300 302 303 304 304 302 301 301 300 300 299 299 300 300 302 303 303 307 311 312 311 307 306 305 308 308 307 306 308 308 306 306 307 306 306 306 304 304 303 303 302 302 302 302 302 301 301 300
303 302 301 299 298 296 295 294 294 293 290 291 291 291 291 292 293 294 296 299 297 297 297 298 299 300 300 300 299 299 299 300 300 299 299 300 301 301 301 302 302 301 301 301 300 299 299 299 299 300 301 300 302 305 308 307 307 309 309 306 303 304 305 305 305 304 305 305 304 304 305 305 304 304 304 304 304 304 303 302 302 301 301 300 300
307 302 301 299 296 294 294 293 291 291 291 292 293 292 292 292 292 293 295 296 296 296 295 296 297 298 298 298 299 299 303 305 307 305 304 306 303 301 302 301 302 300 300 300 299 298 298 299 300 301 301 300 301 302 302 303 303 305 308 307 305 305 305 304 304 306 305 303 303 303 303 303 302 302 302 301 302 302 302 303 302 301 300 300 299
302 303 301 299 296 294 293 292 291 291 291 292 297 295 296 293 292 292 295 296 296 295 296 295 296 297 297 297 299 304 303 303 305 303 302 305 307 307 304 302 302 300 299 299 298 298 298 298 299 299 299 299 300 302 302 304 306 309 306 304 302 304 305 304 304 306 306 304 302 301 302 304 302 301 301 300 301 302 301 301 301 300 300 300 299
302 304 300 298 296 295 294 292 291 291 291 293 294 292 293 294 295 293 294 296 296 295 294 294 294 296 295 296 294 298 299 300 299 300 301 304 304 306 308 310 309 301 298 298 298 297 298 298 299 299 299 298 300 302 302 303 304 306 306 305 304 303 302 300 298 304 309 305 303 301 301 304 303 300 301 301 301 301 301 301 301 301 300 300 299
302 300 300 298 296 295 294 291 290 292 290 296 291 293 293 293 296 295 294 296 298 294 294 294 293 293 294 294 294 295 295 298 297 294 298 303 303 306 307 308 305 301 300 300 299 298 296 296 298 299 299 298 300 301 302 302 301 305 308 306 305 303 302 301 302 300 307 309 303 301 301 304 304 302 300 301 301 301 301 301 301 300 300 300 299
300 300 299 297 295 293 291 289 290 290 288 295 291 292 292 292 293 297 294 296 297 294 293 293 292 292 292 293 293 293 293 298 296 293 294 298 304 307 310 311 310 305 297 297 301 302 297 297 298 298 299 300 299 300 301 302 302 305 307 306 305 304 304 303 302 303 306 309 304 301 300 302 303 301 300 301 301 301 301 301 301 300 300 300 299
299 299 299 297 294 292 291 290 290 289 287 294 291 292 291 292 293 296 295 297 295 294 293 292 292 291 291 291 291 291 291 292 293 292 294 298 300 300 302 304 304 305 305 303 302 303 304 300 298 299 301 301 299 299 301 302 304 306 306 305 306 306 305 304 306 307 309 311 303 302 300 302 303 302 300 301 302 301 301 301 300 300 300 299 299
299 298 298 296 294 294 291 289 289 288 288 293 290 291 291 292 295 297 298 297 295 293 292 292 291 290 289 291 290 290 290 291 294 294 294 295 296 297 298 300 301 301 301 300 300 303 304 302 299 299 299 301 301 300 300 303 305 309 309 308 308 307 307 308 308 308 307 309 308 304 299 302 304 302 301 302 302 302 302 301 300 300 299 299 299
299 298 297 298 296 291 291 290 289 287 286 291 291 291 291 292 296 298 296 295 293 292 292 292 291 290 289 289 289 289 290 290 295 293 294 297 295 295 295 297 298 299 299 303 298 301 307 302 300 300 301 300 298 299 300 302 305 308 311 311 309 308 306 304 302 304 304 307 307 304 301 301 304 302 301 303 303 301 302 301 301 300 300 299 299
298 297 297 297 296 293 292 291 288 287 285 290 291 291 291 292 295 295 295 294 293 291 291 292 291 291 292 292 289 289 290 290 294 291 292 298 294 294 294 295 297 298 298 299 300 297 297 297 295 294 294 295 297 298 297 298 302 307 308 306 303 304 303 301 302 302 302 304 305 306 303 301 303 303 302 303 303 301 301 301 301 300 300 299 299
296 296 297 296 295 295 294 290 287 287 286 291 291 290 291 293 296 294 294 293 292 291 291 291 291 290 292 300 299 290 290 291 292 291 292 296 293 293 293 294 296 296 297 297 300 302 299 298 298 298 298 299 299 300 299 299 300 304 305 301 302 303 303 302 300 301 302 304 304 305 302 301 303 303 301 303 303 302 302 302 302 302 301 301 300
298 295 298 295 294 293 293 291 300 289 286 290 291 290 291 293 294 291 293 293 293 291 292 290 290 291 289 294 300 297 294 293 291 291 291 294 291 293 292 293 295 295 296 294 296 298 298 299 302 303 302 305 306 305 305 302 302 305 304 303 303 302 301 302 302 302 301 301 304 305 303 302 302 302 301 301 300 302 302 302 302 303 303 303 304
Wind_Speed
5 4 3 3 3 4 4 4 5 5 5 5 5 5 6 6 6 6 6 6 6 6 6 6 6 4 3 5 5 5 5 6 4 5 5 6 6 8 18 19 20 22 22 23 24 24 22 22 22 23 24 23 22 21 20 20 19 18 18 19 18 18 19 19 18 16 16 13 13 17 16 15 15 17 18 16 13 13 13 14 15 16 17 19 20
4 4 4 3 3 4 4 5 5 5 5 5 5 5 6 6 6 6 6 6 6 6 5 6 6 4 3 4 5 5 4 5 5 5 5 5 6 6 15 19 19 21 22 24 25 25 25 24 24 22 21 23 21 22 22 20 19 19 17 19 18 17 18 18 18 17 16 13 13 17 15 15 15 15 16 15 11 11 11 12 13 14 17 18 20
5 5 4 3 4 4 5 5 5 5 5 5 5 5 5 5 5 6 6 5 6 5 5 6 6 5 3 4 5 5 5 6 5 5 6 6 6 6 8 16 18 20 21 23 25 25 26 26 24 23 22 20 22 20 20 19 20 19 18 17 17 16 16 17 19 17 17 15 14 12 14 15 15 14 15 16 12 10 10 11 12 13 15 16 18
4 4 3 4 5 5 4 5 5 5 5 5 6 6 5 6 6 5 5 4 5 6 6 5 6 5 4 4 5 5 5 6 6 6 6 7 6 7 6 8 14 19 21 22 23 25 25 26 26 25 22 21 19 18 18 18 19 18 16 18 17 17 16 16 17 18 17 16 14 13 13 15 15 15 16 16 12 10 10 11 11 13 15 17 18
4 4 3 3 4 5 6 5 5 5 5 5 7 7 7 7 8 6 6 5 6 7 7 6 7 6 4 3 4 5 4 5 5 5 6 7 7 7 6 7 8 13 18 21 23 25 26 27 27 24 22 21 20 17 17 14 15 19 18 17 19 17 17 16 16 15 18 15 15 13 13 12 12 14 15 15 13 10 11 11 12 13 14 13 16
4 4 4 5 4 4 4 5 5 4 5 6 7 5 6 7 7 7 6 5 5 5 6 7 6 5 4 4 3 4 4 5 5 5 5 6 6 6 6 6 7 7 9 18 22 24 27 27 26 24 24 21 20 18 16 15 14 16 17 18 19 18 17 16 15 16 18 17 15 15 13 12 14 12 12 13 13 11 11 11 12 13 15 15 17
3 3 4 3 4 5 5 4 4 4 6 6 6 6 6 6 6 7 7 6 5 6 6 5 6 6 6 5 4 4 3 5 6 5 5 6 6 6 6 6 7 7 9 9 14 20 24 26 27 27 25 24 22 20 17 15 14 15 18 18 17 15 16 16 16 16 17 18 16 15 15 15 14 11 9 9 9 11 13 13 13 14 17 17 17
3 3 4 4 4 4 4 4 4 5 5 5 5 6 6 6 6 5 7 8 8 8 7 7 6 7 6 6 5 3 4 5 6 6 5 5 6 6 6 6 7 8 9 8 9 12 23 25 26 25 24 23 23 20 19 14 11 14 16 16 15 15 16 19 18 17 18 15 14 15 15 16 14 12 12 12 11 10 15 15 14 15 18 18 20
3 3 3 3 4 4 4 4 4 5 5 5 5 5 6 6 7 6 4 5 7 8 9 7 7 7 6 6 6 4 4 5 5 6 6 6 6 6 7 7 8 9 8 8 8 9 16 24 25 26 25 23 22 22 17 14 13 11 13 12 13 14 17 18 16 15 16 17 19 18 16 14 13 12 12 10 9 12 14 17 16 16 16 17 19
2 3 3 3 3 3 4 4 4 4 5 5 5 4 5 5 6 6 6 5 6 6 8 8 7 7 6 7 7 5 6 5 4 5 6 6 6 6 7 7 8 8 7 8 9 10 10 16 24 25 25 24 23 21 20 14 12 12 11 10 10 13 16 18 15 15 14 15 19 19 16 13 13 12 10 10 11 13 17 19 17 13 15 17 18
3 3 3 3 3 3 4 4 3 4 5 5 5 5 5 6 5 6 6 5 3 4 4 6 7 6 6 7 6 6 6 5 3 6 6 6 6 7 7 7 7 8 8 9 9 10 11 11 11 11 13 25 22 20 19 17 12 11 10 8 10 12 17 17 14 10 5 7 10 16 12 12 11 11 10 10 10 13 18 18 16 15 14 15 16
3 2 4 3 3 3 3 3 4 4 5 6 6 6 6 7 7 4 6 6 5 4 5 5 5 5 6 6 5 6 7 5 4 6 6 6 6 6 7 7 7 8 8 9 9 10 11 12 12 12 11 17 23 21 19 17 15 12 9 6 11 13 15 16 14 11 13 14 18 17 14 12 11 10 10 9 12 14 17 15 16 15 15 14 14
2 3 5 3 3 3 3 4 4 4 4 4 4 4 4 3 5 4 6 8 6 6 6 6 5 8 7 6 7 5 4 4 4 6 6 6 5 5 6 7 8 9 9 8 10 11 11 12 12 11 11 10 12 19 19 16 14 12 8 8 13 14 14 14 13 12 15 17 16 17 13 10 8 9 9 10 14 17 15 16 16 15 16 19 23
1 3 3 4 4 4 3 3 4 5 4 3 4 5 6 6 5 7 4 4 5 5 6 6 8 7 8 9 6 2 2 3 4 7 7 6 5 5 7 7 9 9 9 9 9 10 11 11 12 12 12 11 11 10 10 10 9 11 8 8 11 10 11 13 12 12 11 13 14 12 9 8 9 12 13 16 17 16 16 16 17 19 21 19 21
4 3 2 4 4 4 4 4 4 4 6 6 5 6 5 4 5 5 7 5 4 5 6 4 2 6 5 4 10 11 11 9 11 9 7 6 5 6 7 7 8 8 9 9 10 10 11 11 12 12 12 12 11 10 9 12 13 12 9 5 6 5 9 12 11 11 8 8 11 11 10 11 11 13 13 13 14 16 16 18 19 20 18 19 20
4 3 3 4 4 4 4 4 4 3 3 4 5 5 5 5 5 5 3 7 6 6 5 5 3 5 7 2 5 4 10 10 11 10 5 5 5 7 6 7 8 9 8 11 11 10 11 11 13 12 13 13 11 11 10 10 16 15 13 5 5 11 12 12 11 10 11 8 8 13 12 12 12 12 13 12 12 15 15 15 15 16 16 16 17
4 3 3 4 4 4 4 4 4 4 3 4 4 4 4 4 4 5 4 2 7 3 5 5 5 0 1 4 4 5 4 8 11 5 5 6 5 7 6 8 8 8 8 10 10 9 10 12 13 12 13 13 12 12 10 11 9 10 10 4 12 11 11 10 8 8 7 7 7 9 12 13 13 12 10 10 10 12 12 13 13 14 13 15 17
4 3 3 3 4 4 4 4 4 5 5 3 3 4 5 5 5 3 5 3 2 5 4 8 7 2 1 1 2 2 5 7 6 10 9 2 5 5 6 9 7 8 7 8 11 11 10 12 12 13 13 12 12 13 12 12 13 9 8 3 8 8 9 9 5 6 6 7 8 9 10 12 9 9 10 9 7 3 1 4 9 4 3 7 10
3 3 3 3 3 4 4 4 4 4 3 4 4 4 4 4 4 6 4 3 4 6 6 5 6 1 4 2 2 3 4 3 7 7 12 8 4 7 7 9 8 7 8 7 10 10 11 11 13 13 13 12 12 12 13 14 20 20 17 10 5 8 8 9 12 12 8 10 9 8 8 7 8 8 7 8 12 16 17 15 14 9 13 5 13
4 3 3 3 3 4 4 4 4 4 3 4 3 4 5 5 4 4 5 5 3 4 5 6 5 6 7 5 4 3 2 3 4 4 6 8 12 10 6 9 8 6 7 6 8 10 12 12 13 13 11 12 12 13 13 13 14 11 13 17 9 5 3 8 9 10 10 8 8 9 11 12 12 9 9 9 10 11 13 12 13 14 16 17 15
3 3 3 3 3 3 4 4 4 4 3 5 4 4 4 4 6 6 5 6 5 3 4 6 5 5 5 6 6 6 7 3 2 2 3 6 8 10 10 7 5 6 7 6 6 8 10 11 11 12 11 12 12 12 12 12 12 14 20 28 15 11 8 4 6 8 6 3 7 10 10 12 14 16 12 13 14 16 18 20 19 15 12 16 18
4 3 3 3 3 3 4 4 4 4 3 4 4 4 5 4 4 4 4 4 5 5 4 5 5 4 3 3 5 5 4 4 4 7 3 2 6 9 8 9 9 7 6 8 6 7 9 10 11 12 12 11 12 13 14 14 14 13 21 30 25 15 7 6 6 7 4 4 8 9 11 14 17 18 19 17 18 20 21 22 18 17 17 22 22
3 4 3 3 4 3 3 4 4 3 4 4 4 3 4 4 4 5 5 4 4 5 6 5 5 5 6 6 6 5 4 6 8 6 4 5 8 8 9 7 4 6 7 7 5 6 8 9 10 11 11 11 10 10 11 12 17 21 27 31 31 28 22 26 22 21 21 19 11 5 16 21 22 22 23 23 21 24 28 27 25 23 19 21 24
3 3 4 4 3 4 4 4 4 4 4 4 3 4 3 3 4 5 5 4 4 5 4 6 6 6 5 5 5 5 6 5 5 5 5 6 5 7 7 7 5 3 4 6 3 5 8 9 9 10 10 10 10 10 11 13 15 29 18 28 29 31 23 28 26 23 25 26 24 20 15 11 29 24 24 24 24 23 25 24 24 21 22 21 22
4 3 4 4 3 4 5 5 5 4 4 4 4 4 4 4 4 4 5 4 4 3 5 4 4 5 5 5 5 6 6 5 5 5 5 4 4 7 7 4 3 5 4 3 3 3 5 7 8 8 9 10 11 11 11 12 13 24 25 21 34 28 25 23 24 24 25 26 28 24 21 12 31 27 25 24 24 24 24 21 20 21 20 18 19
2 3 4 4 4 4 4 4 3 3 3 3 4 4 4 4 4 4 4 4 4 5 4 4 5 5 4 6 6 6 6 6 5 6 6 7 6 5 7 6 3 5 3 4 4 4 4 6 6 7 8 9 10 11 11 12 12 23 25 17 21 26 28 27 22 22 22 24 26 24 22 21 27 28 25 25 24 23 22 21 20 18 19 19 18
2 3 4 5 5 5 5 4 4 3 3 4 5 5 4 3 4 4 4 4 5 5 5 5 6 6 5 5 6 6 6 6 6 6 5 5 5 5 6 9 7 5 5 3 4 5 2 4 6 6 7 8 8 9 10 10 15 23 21 12 12 28 26 27 26 21 22 22 21 20 21 23 25 25 24 23 21 21 20 18 17 18 19 18 18
3 3 5 4 5 4 4 5 5 5 5 5 5 5 5 4 5 5 5 4 5 5 4 4 5 5 5 5 6 6 6 7 6 6 5 5 5 4 4 6 6 7 5 5 5 5 5 3 4 6 6 7 8 8 10 12 12 19 18 11 11 14 25 25 28 29 26 23 21 21 22 22 22 21 19 19 19 19 19 18 17 17 18 17 17
4 4 4 4 5 4 6 7 6 5 5 5 6 6 5 5 5 5 6 6 4 4 4 5 4 4 5 5 5 6 7 6 6 7 6 6 6 5 3 4 3 3 5 5 5 6 5 5 3 5 5 6 7 7 9 9 14 14 10 11 12 11 22 25 26 27 29 30 27 23 20 21 21 18 19 19 19 19 20 20 19 18 18 18 17
3 3 3 4 4 5 6 5 5 5 5 6 6 6 6 6 6 5 5 4 5 5 4 4 4 4 4 6 5 6 6 6 6 6 6 6 6 6 5 4 3 4 2 2 3 4 5 4 4 3 4 5 6 7 7 8 16 13 11 11 11 13 25 25 25 25 26 26 26 27 27 25 21 20 20 22 21 20 21 21 21 20 19 19 16
4 4 5 5 4 5 5 5 6 6 6 7 6 6 5 6 6 6 6 5 5 4 4 3 3 4 5 6 6 6 7 7 7 7 7 7 7 6 6 5 5 2 3 1 2 5 3 5 4 3 2 4 5 6 6 7 12 13 10 10 12 18 21 22 24 23 23 24 27 26 27 26 26 27 26 26 26 25 24 24 23 21 19 17 13
4 3 4 4 4 5 5 5 6 6 6 6 6 6 6 5 5 6 7 6 5 4 3 4 3 4 5 6 6 6 6 6 7 7 7 7 6 7 6 6 6 5 3 3 5 4 4 4 5 5 4 4 4 6 6 6 9 14 10 10 13 16 12 10 22 24 23 24 25 24 24 26 27 27 26 26 26 26 26 26 24 22 18 13 14
3 3 5 4 4 4 5 5 5 6 6 7 6 5 5 6 6 5 6 6 5 3 3 5 4 4 5 6 7 6 5 7 7 7 8 8 7 7 6 6 7 6 5 4 4 4 3 3 4 5 4 3 4 3 6 7 7 8 9 9 10 10 9 8 11 21 23 23 23 22 22 22 23 25 25 25 24 23 24 22 22 21 19 20 18
2 2 4 3 3 4 5 5 6 6 6 5 5 5 6 6 6 5 6 7 5 4 3 4 5 5 5 6 7 7 5 6 8 8 7 8 8 8 8 7 7 7 5 3 5 4 5 5 6 6 6 4 4 2 5 6 7 6 9 8 9 9 9 9 10 12 22 21 22 22 20 21 21 23 24 23 21 21 21 21 21 20 20 21 20
3 2 4 4 4 4 5 5 6 6 5 5 5 5 5 5 6 6 6 6 5 5 4 4 5 5 7 6 7 7 6 7 8 7 7 8 7 8 8 7 7 7 6 4 2 4 5 5 5 6 6 5 5 3 4 4 5 5 8 8 7 7 8 9 9 9 19 20 20 19 20 21 20 21 23 22 20 20 19 18 17 18 19 19 17
2 3 4 5 4 4 5 5 5 4 5 5 5 5 5 5 6 6 6 6 6 5 4 4 5 5 6 7 7 7 7 7 7 8 7 7 8 7 8 7 6 7 7 7 6 3 3 5 6 6 7 5 6 3 4 5 6 5 5 5 6 6 6 7 8 8 13 18 19 19 19 20 20 20 20 21 21 20 18 18 16 15 16 16 16
3 4 4 4 4 4 5 4 4 4 4 4 5 5 5 4 4 5 5 5 6 6 5 4 4 4 6 5 6 6 6 8 8 8 7 9 8 8 8 7 7 7 6 6 7 6 6 6 5 4 5 5 4 4 4 4 4 5 4 4 4 4 5 5 5 6 10 13 16 19 19 20 20 20 19 18 18 18 17 16 16 16 16 16 15
3 4 5 3 4 4 3 3 3 3 3 3 4 4 5 5 5 5 4 4 5 5 6 4 4 4 4 5 6 5 6 6 7 7 7 7 7 8 9 8 7 7 7 8 7 6 6 5 5 6 6 6 5 4 7 2 4 5 4 3 3 4 6 7 7 7 7 7 6 7 10 12 17 19 19 17 17 17 16 16 16 17 17 15 15
3 4 4 4 3 4 3 3 3 3 2 3 3 4 4 5 5 5 5 4 4 4 4 5 4 3 3 4 5 6 6 5 5 6 7 7 6 6 6 7 7 6 6 6 6 6 6 5 5 5 5 5 5 6 7 5 3 3 5 4 6 5 5 5 5 5 5 6 11 16 15 14 16 13 18 18 18 18 18 17 16 17 16 15 14
4 5 5 5 3 3 3 3 2 2 3 3 4 4 3 4 4 4 4 4 4 4 4 4 4 5 4 3 3 4 5 4 4 4 5 6 6 6 6 5 6 6 6 6 6 6 6 6 6 6 5 5 6 5 4 3 5 3 3 3 6 6 7 7 7 7 6 6 6 7 9 10 10 12 13 15 17 17 16 15 17 16 15 14 13
3 4 5 5 5 3 2 3 3 3 4 4 3 3 4 4 3 4 3 3 3 4 4 4 4 4 4 4 4 4 7 10 12 9 8 7 4 5 6 5 5 5 5 6 6 6 6 5 6 6 5 6 6 6 7 8 5 3 4 4 6 5 6 6 7 7 6 6 6 6 7 6 7 7 7 7 9 12 13 13 11 15 15 13 13
3 5 5 4 4 3 3 2 2 3 3 3 5 7 5 2 2 2 2 3 3 3 4 5 5 5 4 4 6 13 14 14 13 13 11 10 10 5 3 3 4 4 4 5 6 6 6 7 7 6 6 6 6 7 6 6 6 3 6 5 7 6 7 6 7 6 5 5 5 7 7 6 6 6 7 7 7 8 7 7 7 8 11 13 13
4 4 6 4 3 2 2 2 3 3 2 2 7 5 5 4 1 1 1 2 3 3 4 4 4 4 4 5 5 8 10 12 11 14 12 11 10 10 8 7 5 3 3 4 4 4 5 5 5 5 5 6 7 6 5 6 5 3 5 5 5 5 4 4 6 4 4 4 4 6 8 6 6 6 6 7 6 7 6 7 12 13 13 12 12
3 4 6 5 4 3 2 2 2 2 2 5 6 6 6 5 3 0 0 1 3 3 3 4 3 4 4 5 5 5 6 8 7 8 10 12 12 11 9 8 7 7 5 2 3 4 4 4 5 6 5 7 7 6 6 6 5 3 4 3 3 4 5 5 4 5 2 3 6 7 8 6 5 5 7 6 6 5 7 10 13 12 12 13 13
3 4 5 6 4 3 3 3 2 2 2 6 7 7 7 7 6 2 1 3 4 3 3 3 4 4 4 5 5 6 6 12 8 7 7 8 9 12 10 8 8 10 9 9 6 3 2 3 4 5 6 6 6 5 6 6 5 2 5 4 3 4 5 6 6 6 4 2 6 7 8 5 5 6 8 5 5 4 6 9 11 11 12 13 14
4 3 5 6 4 3 3 3 1 1 2 6 8 8 8 7 6 3 4 6 4 3 3 3 3 4 4 3 5 6 6 7 7 8 7 7 7 6 6 6 5 7 7 5 4 4 3 4 3 5 5 5 5 5 7 6 5 4 6 5 2 5 6 6 6 5 3 2 5 6 6 6 5 6 7 6 5 4 4 7 8 8 8 9 9
4 4 4 5 4 4 3 2 1 1 2 5 7 8 8 7 6 5 7 6 5 3 3 3 3 3 3 3 3 4 5 6 6 8 7 7 5 5 6 6 5 5 3 4 3 0 2 2 2 2 3 3 4 5 5 5 4 3 5 5 5 7 7 6 6 6 5 4 2 1 5 4 3 6 6 5 4 5 5 6 8 7 8 7 6
3 3 2 4 5 4 3 2 2 1 2 5 6 8 7 7 6 5 6 6 5 3 2 2 3 2 1 2 4 4 5 5 9 12 9 5 4 6 6 6 6 5 5 5 5 3 1 2 1 1 1 4 5 7 7 4 2 6 5 6 5 4 6 7 7 5 5 4 6 4 4 4 3 5 4 3 4 5 5 5 7 8 8 8 9
4 4 4 4 5 5 4 2 2 0 2 4 6 7 7 6 5 5 6 5 4 3 2 2 2 2 2 1 3 4 4 5 9 11 12 8 5 7 6 6 5 5 7 6 8 6 6 8 9 8 6 8 9 11 13 13 9 3 5 6 4 1 6 8 7 5 4 3 4 5 2 4 2 2 4 2 4 5 5 5 5 8 10 10 11
4 4 4 4 4 4 5 4 3 2 1 3 5 6 6 5 4 5 5 6 4 3 0 1 2 3 4 7 5 4 5 6 10 10 11 7 6 6 6 6 7 8 7 6 4 4 5 5 8 9 10 10 10 11 14 14 14 9 6 5 2 1 6 6 6 4 3 4 3 5 1 2 2 1 3 3 3 3 4 4 5 6 10 11 13
4 2 3 4 3 3 4 4 5 3 0 2 4 5 6 5 4 4 6 5 4 1 1 2 3 3 3 5 7 7 6 7 10 10 10 7 4 5 4 4 6 6 5 5 2 2 2 4 5 5 6 8 7 7 9 14 13 10 7 5 4 4 5 4 6 5 4 3 3 6 2 0 1 1 1 1 3 3 1 3 4 4 5 4 6
Wind_Direction
19 13 6 6 340 356 355 354 354 352 360 359 360 346 345 346 346 340 340 342 338 335 333 335 337 333 353 341 342 339 338 344 340 337 336 331 329 323 341 342 340 338 339 339 336 333 328 322 317 315 312 303 295 289 286 282 273 263 263 264 259 254 249 244 237 233 236 237 245 245 227 220 219 218 232 225 203 201 205 208 205 213 222 224 223
17 15 22 344 334 345 360 356 355 351 1 1 343 353 349 350 346 343 339 338 338 330 335 335 337 338 339 348 343 335 330 344 334 332 326 329 326 323 334 340 338 337 340 341 339 335 331 329 323 316 309 307 300 292 282 275 274 270 260 256 252 253 249 242 236 231 229 232 229 242 233 225 225 225 233 234 214 202 202 206 205 209 214 224 224
21 12 23 343 334 350 356 348 0 356 356 351 351 1 353 355 345 342 339 333 335 332 342 343 335 336 333 354 340 341 343 342 335 326 331 330 332 325 323 332 335 336 338 340 339 335 334 332 327 322 318 312 305 294 283 277 273 264 265 258 254 250 246 247 238 229 224 220 228 236 239 231 227 225 226 237 221 205 201 202 204 206 214 223 223
34 19 15 1 360 359 345 359 355 350 356 354 7 8 5 358 359 356 341 344 344 353 354 2 342 330 329 348 341 353 348 344 338 334 332 330 324 318 319 323 330 334 337 337 335 332 332 331 331 329 323 319 309 299 294 283 274 268 260 261 251 243 240 240 245 234 223 213 217 229 236 230 227 221 226 232 228 211 202 200 200 205 214 219 219
41 33 15 6 9 13 9 4 351 346 354 3 17 14 11 5 5 357 353 354 358 1 1 2 355 336 329 331 343 350 340 344 332 332 332 322 317 321 319 325 325 327 334 336 334 334 335 335 335 333 327 321 318 309 297 285 272 265 264 260 250 242 234 233 235 233 235 218 212 219 229 235 231 223 225 226 228 217 209 200 195 201 216 222 211
33 26 20 12 9 18 21 11 355 350 356 8 18 12 12 11 4 2 355 352 352 358 3 358 348 336 329 318 343 329 327 329 324 321 321 320 315 318 321 317 318 323 328 336 335 335 334 333 335 337 336 332 325 320 304 290 271 253 252 251 255 249 238 225 226 221 228 225 211 210 217 218 231 228 226 229 233 228 217 204 194 190 196 213 209
17 34 18 16 13 17 24 12 6 5 8 1 14 12 13 11 5 7 354 352 350 0 1 350 343 341 331 320 320 313 328 323 320 323 320 312 316 319 319 318 325 331 336 330 327 328 331 337 343 343 340 336 333 324 316 303 288 268 251 244 239 238 246 230 220 217 223 224 214 207 209 214 216 208 204 216 230 244 226 209 189 184 195 206 211
21 36 30 14 16 13 3 12 17 19 9 4 13 14 2 11 6 12 6 356 348 351 355 350 344 341 335 322 310 318 333 324 317 318 309 312 316 322 320 324 330 334 332 329 322 319 330 336 346 344 341 337 333 324 317 316 297 281 274 258 246 237 236 226 216 212 216 217 232 215 210 210 207 203 207 210 215 225 236 210 193 190 199 201 207
22 41 49 15 15 10 360 6 16 29 19 7 14 1 13 9 6 6 21 351 350 347 349 346 339 335 327 325 313 308 318 314 318 310 321 315 314 324 326 327 327 331 325 320 321 326 331 339 343 344 342 338 332 327 322 314 302 285 271 267 252 247 232 227 215 213 211 200 215 224 208 205 200 201 206 211 220 229 233 219 200 198 193 197 201
28 44 44 24 25 15 360 7 15 25 24 20 3 355 8 16 6 357 358 356 350 347 339 337 334 332 329 323 316 308 300 306 315 327 323 315 318 323 331 321 322 318 320 325 328 326 328 339 341 341 339 338 336 331 326 315 309 295 281 265 256 243 241 226 213 211 215 213 213 219 202 196 198 204 209 215 226 227 231 218 208 194 195 201 194
347 50 45 24 16 10 10 357 15 23 24 15 8 360 4 6 12 349 350 344 327 326 322 322 332 324 322 313 316 316 312 302 322 324 320 315 314 328 328 325 319 320 325 330 331 332 337 340 336 336 332 337 340 338 331 323 315 306 294 270 246 231 229 225 213 205 214 271 288 249 204 196 202 208 213 223 224 229 231 217 207 200 200 200 201
330 11 57 35 21 4 10 354 12 27 21 17 3 2 2 357 354 350 352 342 340 350 342 336 320 306 325 330 329 324 320 317 317 327 322 321 327 327 322 321 326 325 330 336 335 334 340 343 345 340 334 336 341 343 342 333 324 312 308 265 248 231 221 215 207 191 195 204 212 226 212 202 204 208 219 227 227 226 222 212 197 192 190 186 160
339 346 47 32 17 358 11 359 358 24 19 4 358 355 357 355 343 343 359 355 342 358 347 333 330 353 353 343 335 321 292 299 332 332 328 321 325 324 325 331 330 339 341 339 341 339 346 350 346 341 338 334 336 342 345 339 325 314 293 234 241 225 211 214 203 195 194 202 217 209 206 196 191 197 216 225 222 221 210 209 199 183 182 175 180
345 328 39 41 21 2 355 348 360 6 10 357 9 8 2 8 7 358 356 355 336 338 346 358 11 352 336 332 320 312 335 321 344 336 327 324 319 326 333 333 335 340 342 347 345 344 348 349 347 345 342 342 339 335 338 331 319 329 319 278 238 213 206 207 199 198 197 204 213 200 202 190 191 204 213 217 219 211 204 197 193 186 188 180 182
14 347 48 30 29 22 348 336 4 6 16 10 6 5 355 353 5 17 344 346 334 334 -0 49 336 317 290 333 6 344 350 358 351 340 324 322 322 326 334 338 334 339 344 347 349 350 351 351 346 348 349 347 344 343 344 348 348 -0 333 320 235 173 207 202 198 190 196 214 208 201 207 200 212 219 219 221 220 213 207 194 194 191 187 180 183
23 16 33 39 34 17 1 14 4 13 28 22 7 359 351 351 352 2 9 356 350 322 355 6 15 0 7 7 299 346 350 352 330 318 308 319 325 333 337 342 333 340 348 355 353 350 352 350 352 351 351 351 350 351 353 349 355 352 344 32 141 162 203 203 196 200 198 214 209 202 205 200 213 220 219 221 222 220 211 197 184 186 179 176 179
45 25 38 38 36 23 14 2 6 356 19 22 10 341 339 334 343 351 17 19 342 328 320 4 352 332 34 348 337 9 351 305 324 287 334 331 336 336 342 350 343 343 352 350 350 352 350 355 353 354 355 354 357 358 355 354 344 341 339 346 154 170 192 193 202 207 211 219 236 195 199 205 209 217 217 222 222 219 201 179 178 190 182 184 180
42 39 29 40 36 25 21 16 1 347 -0 8 5 356 348 350 342 346 347 359 317 344 339 340 352 324 175 172 170 224 295 310 336 337 325 224 317 344 348 346 343 348 352 350 353 350 354 354 354 356 357 358 357 2 4 0 359 346 344 308 136 157 179 189 192 225 212 230 242 231 220 212 199 206 199 188 186 151 151 176 176 140 186 170 162
29 34 33 22 37 23 13 14 2 351 341 9 358 341 327 336 340 359 337 335 15 6 346 331 339 323 356 289 267 248 236 300 338 312 339 344 7 358 351 349 340 348 354 355 351 349 353 356 357 358 359 359 2 5 7 5 6 3 359 20 111 157 182 188 196 219 221 221 219 202 210 177 217 193 148 153 167 172 173 179 147 157 122 161 182
57 21 15 11 26 20 7 7 5 344 342 343 331 323 342 345 347 343 345 360 13 13 331 354 25 330 342 343 326 305 283 240 240 302 292 317 335 346 4 352 336 341 346 354 354 353 352 357 358 359 360 3 3 10 8 8 9 348 18 22 40 81 195 213 212 218 212 214 184 175 172 182 165 143 158 150 160 164 168 154 152 159 152 149 153
51 47 20 4 359 0 359 359 356 342 347 338 332 334 345 340 349 345 343 342 358 345 9 349 359 344 351 346 338 346 336 311 263 300 305 326 331 340 338 339 337 339 345 354 356 354 353 354 356 359 4 5 7 9 7 9 7 9 18 18 27 33 23 336 237 222 232 201 185 185 172 168 148 145 151 146 152 154 148 147 148 140 145 129 114
2 16 17 10 358 352 358 342 332 331 352 340 331 341 340 344 344 337 338 350 340 354 3 347 357 348 13 343 -0 341 339 338 340 352 321 281 329 330 335 340 343 328 337 351 355 356 353 355 359 3 7 8 8 9 8 11 13 13 17 18 30 41 44 50 69 44 121 208 209 188 160 168 142 138 137 127 127 119 119 121 127 133 137 133 132
359 346 358 350 358 342 355 337 322 333 344 351 339 317 317 330 344 354 355 350 329 348 2 3 8 4 3 12 10 11 12 359 339 340 332 327 334 343 338 339 303 319 333 339 359 358 359 2 2 2 5 8 6 10 11 7 16 19 15 20 24 26 69 82 82 81 74 77 73 155 178 163 146 130 118 107 107 116 117 128 129 125 133 128 121
10 352 343 333 344 330 333 342 331 333 335 328 343 342 321 329 357 358 346 342 350 359 6 11 5 4 6 357 7 357 6 4 326 326 337 328 322 326 337 325 323 319 288 332 355 14 7 11 2 2 3 4 7 10 13 13 16 21 19 21 26 17 37 71 72 72 76 75 72 71 73 153 118 118 109 106 105 101 104 108 116 121 122 117 116
332 342 316 318 326 324 328 326 320 323 315 345 346 353 350 337 350 354 346 347 340 1 13 5 15 16 353 351 2 6 356 332 340 337 330 315 322 336 339 319 306 311 294 350 331 331 10 18 3 3 2 6 7 10 14 16 16 20 22 21 22 18 20 67 73 68 64 69 68 61 58 91 100 98 102 103 104 106 103 104 106 107 106 107 111
301 306 284 307 326 300 300 303 308 308 321 342 359 358 0 347 349 2 339 327 348 15 17 8 21 9 10 10 357 354 353 344 343 350 348 354 349 342 329 338 329 313 305 340 326 12 4 19 8 6 7 8 8 9 13 16 15 25 27 28 22 17 24 39 64 77 77 69 72 68 61 59 83 95 95 96 95 93 92 91 91 97 106 111 113
285 276 303 323 308 311 304 317 329 334 344 359 2 3 1 355 3 352 342 347 359 19 24 18 23 9 9 8 353 3 351 345 349 351 340 350 330 316 337 340 340 344 353 316 327 24 333 15 13 9 11 13 9 10 10 13 23 28 32 27 22 23 26 29 39 63 78 85 86 83 75 66 70 78 87 92 94 102 106 105 106 105 104 105 108
316 328 309 321 320 319 331 352 2 12 16 10 6 3 352 357 3 359 349 348 3 24 21 28 26 11 6 -0 12 355 350 349 347 336 342 333 337 333 326 326 333 342 343 343 356 1 14 14 20 14 11 12 13 12 12 19 22 24 27 27 28 26 29 33 36 41 56 67 78 87 91 85 73 71 76 83 92 94 98 101 107 110 113 119 115
330 329 331 340 334 24 40 33 23 22 24 19 18 15 4 357 359 358 355 342 11 29 26 37 20 10 7 8 8 354 352 345 348 350 342 342 346 341 342 319 314 340 340 347 350 355 358 9 27 13 7 19 19 14 20 23 25 26 24 29 33 33 38 39 38 42 45 49 60 69 77 90 97 94 89 92 89 90 95 99 101 102 101 101 102
339 331 351 2 9 35 52 43 29 28 19 22 18 15 15 12 358 354 348 352 24 26 26 39 17 5 7 12 5 3 348 351 346 344 348 345 346 349 340 341 319 320 313 335 337 0 350 356 33 22 10 24 25 27 27 24 30 26 28 31 36 38 44 44 43 44 46 44 41 52 64 69 75 83 91 90 86 86 88 89 93 95 96 94 95
8 344 3 29 28 38 47 39 31 26 21 19 12 14 12 15 4 357 353 357 25 32 10 30 9 18 8 8 -0 3 350 347 350 352 354 354 350 342 346 350 0 346 319 290 24 358 15 1 355 25 49 42 36 40 35 31 31 31 29 33 37 41 43 45 46 46 47 48 53 50 50 54 56 58 61 65 67 70 74 77 78 78 83 87 87
356 334 29 40 41 51 44 41 32 25 23 13 12 8 9 16 2 3 354 6 21 32 15 14 16 22 17 10 2 1 349 350 356 354 351 352 350 350 350 349 350 4 359 37 57 13 349 357 1 15 45 76 35 42 45 41 35 36 34 33 39 39 40 42 47 50 50 52 53 53 52 53 56 58 58 59 62 62 62 65 64 62 62 70 91
358 359 50 59 58 59 55 43 38 30 20 13 4 6 16 8 4 0 -0 11 19 10 33 24 10 22 19 14 4 358 351 359 354 353 356 352 352 356 354 357 358 3 18 28 38 7 358 10 16 21 39 98 71 31 53 43 40 39 43 41 37 37 37 39 47 49 53 54 53 52 53 52 52 55 56 56 56 57 59 56 56 58 55 60 60
18 12 74 68 65 65 62 46 39 30 19 11 3 9 17 8 3 359 -0 8 10 5 21 32 13 10 25 22 6 353 352 0 359 358 354 352 358 359 -0 357 356 359 7 42 23 12 15 4 27 18 24 36 100 77 75 67 56 46 47 49 44 45 41 39 46 45 51 56 57 55 52 54 55 56 55 55 53 54 54 55 57 59 57 58 56
338 42 96 87 75 71 66 56 42 29 18 6 359 10 14 12 4 359 360 6 13 14 24 18 14 12 28 21 7 353 352 7 1 352 353 358 355 3 357 357 360 1 10 33 48 23 8 25 12 15 11 23 58 100 85 84 84 60 61 53 52 53 53 48 48 52 55 56 57 57 58 57 55 55 56 54 53 52 52 53 55 58 61 61 57
359 22 90 99 88 72 70 58 50 37 19 7 2 7 7 6 8 3 3 8 17 22 37 43 24 22 32 24 3 353 356 11 360 352 351 352 0 359 3 4 5 13 21 23 23 31 2 32 15 23 357 349 31 57 106 96 91 82 74 71 58 60 59 57 56 57 57 61 59 59 60 61 60 59 57 56 57 56 54 55 55 56 59 62 63
0 75 93 92 85 74 71 62 53 41 23 9 9 6 5 4 5 10 12 16 23 27 28 44 43 30 37 30 3 359 1 10 358 355 346 354 355 3 7 7 13 15 23 28 28 32 36 27 356 359 357 8 355 25 54 109 106 100 98 79 69 60 55 42 51 56 55 53 56 56 56 56 56 56 56 55 56 57 57 56 56 55 56 58 59
40 90 110 89 96 92 84 77 71 53 28 19 20 7 1 3 7 13 17 24 31 30 27 24 31 30 37 26 10 6 6 11 352 346 346 349 351 4 8 6 10 15 25 27 27 28 37 23 10 352 5 9 351 3 16 46 123 114 102 95 83 67 66 65 56 52 46 46 39 46 51 53 54 55 55 53 53 53 54 55 55 55 53 50 51
81 103 106 101 95 99 93 84 66 60 43 25 16 11 14 14 6 8 15 20 28 35 30 17 15 24 38 31 14 6 6 357 0 351 337 342 356 351 6 2 4 9 21 22 16 19 22 16 6 10 350 352 5 4 353 347 100 110 108 106 85 71 61 52 54 43 46 56 58 57 57 60 58 57 56 54 53 53 53 54 56 58 58 56 54
86 120 127 120 113 101 98 85 69 55 47 31 11 6 22 21 10 1 11 20 19 30 27 23 20 19 7 11 21 5 3 350 3 345 346 337 338 352 1 11 7 11 16 9 17 20 20 20 23 6 3 348 358 356 316 9 56 67 70 79 79 70 59 47 42 46 37 42 44 44 41 44 44 45 44 49 49 50 51 52 54 56 57 57 57
95 119 132 128 122 103 80 72 52 36 35 17 11 354 356 12 19 359 356 14 15 35 28 21 20 13 13 4 353 5 8 9 17 11 357 350 339 340 347 6 10 15 14 11 13 20 19 27 28 15 6 9 8 352 356 14 12 355 87 85 88 79 80 72 62 49 44 46 48 51 45 35 40 36 34 35 38 40 43 47 52 55 55 54 56
116 119 132 127 123 127 107 67 53 48 23 351 358 354 341 348 10 334 345 24 10 37 36 18 14 9 4 7 356 7 9 7 7 1 348 346 351 351 333 19 10 13 19 23 22 17 23 28 22 11 11 9 354 352 355 354 344 36 94 93 100 95 89 80 77 55 41 49 49 59 52 36 46 47 40 42 31 37 36 39 51 62 61 61 60
124 119 129 130 129 128 120 98 63 44 11 349 353 329 328 335 28 13 15 24 31 24 41 35 15 358 358 359 1 2 6 4 356 351 347 348 349 349 359 33 44 25 9 41 33 23 37 29 14 17 14 359 352 348 357 335 359 317 116 113 110 104 95 92 84 77 34 45 50 67 64 40 43 55 46 42 32 37 39 47 57 61 65 65 67
144 114 125 142 142 140 111 87 61 18 353 357 344 337 335 348 20 35 291 91 64 25 32 33 18 7 2 1 3 1 1 1 357 350 347 346 350 352 356 22 46 57 36 51 66 45 35 34 28 19 9 16 348 353 347 349 346 359 100 100 87 102 102 88 84 81 57 44 82 76 70 57 54 56 57 43 40 33 46 59 61 61 66 69 71
137 127 136 140 144 138 122 106 59 6 339 346 346 342 342 352 4 87 63 109 81 44 28 30 24 14 5 7 7 6 354 360 5 356 351 344 342 356 1 13 18 32 36 44 37 91 123 56 39 19 14 354 356 344 332 325 308 89 91 76 73 73 86 92 88 99 83 72 90 78 72 51 50 63 66 48 44 31 41 57 66 68 68 70 72
148 154 131 142 145 141 140 125 90 332 348 350 343 344 343 356 355 52 89 101 88 65 45 37 33 21 4 15 16 7 355 357 1 359 350 351 354 359 4 2 8 14 12 36 59 58 69 82 51 38 359 8 350 323 315 323 328 82 108 95 83 90 88 94 93 82 69 42 87 103 80 60 48 63 60 55 55 47 42 49 59 64 67 68 72
169 173 155 142 155 150 146 146 136 15 335 347 339 346 348 359 19 86 101 97 90 73 45 41 51 32 359 4 21 12 353 354 1 358 354 351 349 359 6 1 1 -0 8 3 333 148 122 120 109 65 5 359 352 334 324 324 299 78 94 102 100 102 102 94 85 79 61 15 27 33 92 84 64 66 61 56 58 63 57 48 49 58 63 65 66
197 171 107 125 146 156 163 155 118 31 321 344 346 347 354 2 46 91 102 101 98 86 54 33 42 24 350 8 24 15 1 348 355 355 354 340 0 18 9 358 8 6 19 359 349 287 191 167 166 174 347 354 343 356 1 9 13 66 92 94 82 91 96 84 76 68 63 24 26 33 85 86 62 81 76 36 55 65 57 57 46 56 62 58 58
186 185 174 162 159 158 163 173 140 48 311 344 357 351 354 6 78 97 106 105 102 95 66 19 14 357 314 39 39 18 6 355 350 352 354 358 20 22 8 3 4 28 23 356 0 13 15 16 9 1 353 351 357 12 23 34 36 34 98 86 59 43 104 99 87 79 57 25 16 2 55 90 56 92 110 70 67 62 57 53 57 58 68 64 60
194 198 164 149 163 162 162 177 181 141 324 333 13 358 -0 26 87 116 123 117 113 113 71 353 354 357 333 4 33 31 8 351 346 354 -0 6 25 12 17 6 23 20 6 352 349 11 24 352 359 14 20 25 21 23 31 38 39 38 65 72 330 57 86 93 105 92 78 48 8 339 43 75 116 81 104 146 116 58 48 49 60 74 74 72 68
192 171 162 148 159 156 163 163 183 150 233 339 14 2 12 46 86 106 121 123 125 157 73 358 333 339 328 336 6 17 10 349 352 2 6 12 23 19 355 27 28 22 348 321 326 29 23 43 26 19 11 21 28 33 33 38 44 46 53 57 38 67 82 85 110 117 94 15 349 347 85 171 31 332 132 130 76 109 76 63 60 61 55 52 67